TimeEST,TemperatureF,Dew PointF,Humidity,Sea Level PressureIn,VisibilityMPH,Wind Direction,Wind SpeedMPH,Gust SpeedMPH,PrecipitationIn,Events,Conditions,WindDirDegrees,DateUTC
12:51 AM,25.0,19.9,81,29.42,8.0,WSW,16.1,28.8,N/A,,Overcast,250,2014-01-20 05:51:00
1:51 AM,25.0,19.9,81,29.41,3.0,WSW,15.0,32.2,0.00,Snow,Light Snow,240,2014-01-20 06:51:00
1:59 AM,25.0,21.0,85,29.34,2.0,WSW,9.2,19.6,0.00,Snow,Light Snow,240,2014-01-20 06:59:00
2:04 AM,25.0,21.0,85,29.34,1.8,WSW,9.2,17.3,0.00,Snow,Light Snow,240,2014-01-20 07:04:00
2:37 AM,24.1,21.9,91,29.35,2.0,SW,8.1,-,0.00,Snow,Light Snow,230,2014-01-20 07:37:00
2:48 AM,24.1,21.9,91,29.42,1.8,WSW,5.8,-,0.00,Snow,Light Snow,240,2014-01-20 07:48:00
3:02 AM,24.1,21.9,91,29.35,1.8,SW,8.1,-,0.00,Snow,Light Snow,230,2014-01-20 08:02:00
3:18 AM,24.1,21.9,91,29.35,-9999.0,North,-9999.0,-,0.00,,Unknown,0,2014-01-20 08:18:00
3:37 AM,24.1,21.9,91,29.35,1.8,SW,8.1,-,0.00,Snow,Light Snow,230,2014-01-20 08:37:00
3:51 AM,24.1,21.9,91,29.42,1.8,SW,6.9,-,0.00,Snow,Light Snow,230,2014-01-20 08:51:00
3:58 AM,24.1,21.9,91,29.35,2.0,SW,8.1,-,0.00,Snow,Light Snow,230,2014-01-20 08:58:00
4:10 AM,24.1,21.9,91,29.35,3.0,SW,10.4,-,0.00,Snow,Light Snow,220,2014-01-20 09:10:00
4:16 AM,24.1,21.0,88,29.35,3.0,West,8.1,-,0.00,Snow,Light Snow,260,2014-01-20 09:16:00
4:18 AM,24.1,21.9,91,29.35,2.5,WSW,6.9,17.3,0.00,Snow,Light Snow,240,2014-01-20 09:18:00
4:26 AM,24.1,21.0,88,29.35,2.0,Calm,Calm,-,0.01,Snow,Light Snow,0,2014-01-20 09:26:00
4:51 AM,21.0,18.0,88,29.43,2.0,Variable,5.8,-,0.01,Snow,Light Snow,0,2014-01-20 09:51:00
5:01 AM,19.9,18.0,92,29.36,1.5,Calm,Calm,-,0.00,Snow,Light Snow,0,2014-01-20 10:01:00
5:27 AM,19.9,17.1,89,29.37,1.5,Calm,Calm,-,0.01,Snow,Light Snow,0,2014-01-20 10:27:00
5:47 AM,19.4,15.8,86,29.37,2.5,NW,4.6,-,0.01,Snow,Light Snow,320,2014-01-20 10:47:00
5:51 AM,19.0,16.0,88,29.45,2.0,NW,3.5,-,0.01,Snow,Light Snow,310,2014-01-20 10:51:00
5:58 AM,19.0,16.0,88,29.38,1.5,North,4.6,-,0.00,Snow,Light Snow,350,2014-01-20 10:58:00
6:08 AM,18.0,15.1,88,29.38,2.0,North,5.8,-,0.00,Snow,Light Snow,360,2014-01-20 11:08:00
6:18 AM,16.0,12.9,88,29.39,1.8,NNW,6.9,-,0.00,Snow,Light Snow,340,2014-01-20 11:18:00
6:26 AM,16.0,12.0,84,29.40,2.0,Variable,4.6,-,0.00,Snow,Light Snow,0,2014-01-20 11:26:00
6:49 AM,12.2,8.6,85,29.41,1.5,NNW,8.1,-,0.00,Snow,Light Snow,340,2014-01-20 11:49:00
6:51 AM,12.9,9.0,84,29.49,1.5,NNW,8.1,-,0.00,Snow,Light Snow,340,2014-01-20 11:51:00
7:51 AM,10.9,7.0,84,29.52,1.8,NNW,8.1,-,0.00,Snow,Light Snow,340,2014-01-20 12:51:00
7:58 AM,10.9,6.1,81,29.44,2.0,Variable,4.6,-,0.00,Snow,Light Snow,0,2014-01-20 12:58:00
8:06 AM,10.0,6.1,84,29.44,2.5,Variable,5.8,-,0.00,Snow,Light Snow,0,2014-01-20 13:06:00
8:32 AM,10.9,6.1,81,29.45,3.0,North,4.6,-,0.00,Snow,Light Snow,10,2014-01-20 13:32:00
8:51 AM,-9999,-9999,N/A,29.45,-9999.0,North,-9999.0,-,0.00,,Unknown,0,2014-01-20 13:51:00
9:51 AM,10.9,6.1,81,29.56,4.0,Variable,5.8,-,N/A,,Haze,0,2014-01-20 14:51:00
10:36 AM,10.9,6.1,81,29.49,2.5,Variable,3.5,-,0.00,Snow,Light Snow,0,2014-01-20 15:36:00
10:49 AM,10.4,5.0,79,29.48,3.0,North,4.6,-,0.00,Snow,Light Snow,350,2014-01-20 15:49:00
10:51 AM,10.9,5.0,77,29.56,3.0,NNW,5.8,-,0.00,Snow,Light Snow,340,2014-01-20 15:51:00
10:57 AM,10.9,5.0,77,29.47,2.5,Variable,3.5,-,0.00,Snow,Light Snow,0,2014-01-20 15:57:00
11:05 AM,10.9,5.0,77,29.48,3.0,WNW,5.8,-,0.00,Snow,Light Snow,300,2014-01-20 16:05:00
11:41 AM,10.9,5.0,77,29.46,2.5,Variable,5.8,-,0.00,Snow,Light Snow,0,2014-01-20 16:41:00
11:51 AM,10.0,5.0,80,29.54,3.0,Variable,5.8,-,0.00,,Haze,0,2014-01-20 16:51:00
12:51 PM,10.0,3.9,76,29.55,7.0,Variable,5.8,-,N/A,,Overcast,0,2014-01-20 17:51:00
1:13 PM,9.0,3.0,77,29.48,1.8,NW,5.8,-,0.00,Snow,Light Snow,320,2014-01-20 18:13:00
1:51 PM,7.0,1.9,80,29.59,1.0,Variable,5.8,-,0.00,Snow,Light Snow,0,2014-01-20 18:51:00
2:35 PM,7.0,1.0,77,29.52,1.8,Variable,4.6,-,0.00,Snow,Light Snow,0,2014-01-20 19:35:00
2:37 PM,8.1,1.9,76,29.52,2.0,Variable,3.5,-,0.00,Snow,Light Snow,0,2014-01-20 19:37:00
2:51 PM,7.0,1.0,77,29.61,4.0,WNW,8.1,-,0.00,,Haze,290,2014-01-20 19:51:00
3:05 PM,6.1,-0.9,73,29.55,10.0,WNW,8.1,-,N/A,,Scattered Clouds,290,2014-01-20 20:05:00
3:30 PM,5.0,-0.9,76,29.57,5.0,Variable,5.8,-,N/A,,Haze,0,2014-01-20 20:30:00
3:51 PM,3.9,-0.9,80,29.68,2.0,Variable,4.6,-,N/A,,Haze,0,2014-01-20 20:51:00
4:10 PM,3.9,-2.0,76,29.61,1.8,NW,5.8,-,N/A,,Haze,320,2014-01-20 21:10:00
4:17 PM,3.0,-2.0,80,29.61,3.0,WNW,6.9,-,N/A,,Haze,300,2014-01-20 21:17:00
4:51 PM,1.0,-4.0,79,29.74,9.0,WNW,6.9,-,N/A,,Scattered Clouds,300,2014-01-20 21:51:00
5:51 PM,-0.9,-8.0,72,29.79,10.0,West,8.1,-,N/A,,Clear,280,2014-01-20 22:51:00
6:51 PM,-4.0,-9.0,79,29.84,10.0,WSW,4.6,-,N/A,,Partly Cloudy,250,2014-01-20 23:51:00
7:51 PM,-5.1,-9.9,80,29.88,10.0,Calm,Calm,-,N/A,,Clear,0,2014-01-21 00:51:00
8:49 PM,-5.8,-11.2,77,29.77,8.0,WSW,3.5,-,N/A,,Mostly Cloudy,250,2014-01-21 01:49:00
8:51 PM,-6.0,-11.0,79,29.77,8.0,Variable,4.6,-,N/A,,Mostly Cloudy,0,2014-01-21 01:51:00
8:57 PM,-6.0,-11.0,79,29.78,9.0,West,4.6,-,N/A,,Scattered Clouds,260,2014-01-21 01:57:00
9:38 PM,-8.0,-13.0,79,29.80,10.0,WSW,3.5,-,N/A,,Mostly Cloudy,240,2014-01-21 02:38:00
9:51 PM,-7.1,-13.0,75,29.93,10.0,West,3.5,-,N/A,,Scattered Clouds,280,2014-01-21 02:51:00
10:51 PM,-11.0,-15.0,83,29.96,10.0,SSW,3.5,-,N/A,,Clear,200,2014-01-21 03:51:00
11:51 PM,-11.0,-15.0,83,29.98,10.0,SW,3.5,-,N/A,,Scattered Clouds,230,2014-01-21 04:51:00